Theta_e
349 351 350 351 350 350 350 351 355 355 355 353 351 354 355 359 359 360 360 359 358 356 354 353 353 353 354 355 355 356 356 357 357 352 351 352 349 348 349 349 348 346 345 344 343 344 345 345 345 344 343 343 342 338 333 330 329 328 329 333 334 334 335 337 339 340 341 343 343 344 344 344 344 344 344 344 344 343 344 344 344 344 345 345 344 344 344 344 344 344 344 344 344 344 344 343 341
349 353 352 352 350 351 352 352 357 356 355 351 350 354 356 360 361 361 359 358 357 352 353 351 352 352 353 354 354 356 357 357 357 355 353 350 348 349 349 348 348 345 344 342 343 344 344 344 344 344 342 343 341 336 332 330 328 327 330 332 333 334 336 338 340 340 341 343 344 344 344 344 344 344 344 344 344 343 344 343 343 344 344 345 345 345 344 344 344 345 344 344 344 344 343 343 342
351 355 353 352 351 351 353 354 356 355 353 347 347 356 360 362 362 359 356 356 354 350 352 351 351 352 352 353 355 356 356 356 355 354 353 351 349 350 348 346 346 344 343 342 343 345 344 343 344 344 342 342 340 335 332 330 327 328 330 331 333 334 337 339 340 340 341 342 342 343 343 344 344 345 345 344 344 343 345 344 344 344 343 344 344 344 345 344 345 345 345 344 344 344 344 343 342
354 356 354 354 352 352 355 356 357 354 352 349 348 356 359 361 361 355 356 354 353 352 353 352 351 352 353 354 354 355 355 356 355 354 354 351 349 350 349 348 346 344 343 342 343 344 343 343 343 343 343 342 341 336 333 329 327 328 329 331 333 335 338 340 340 340 341 341 341 342 343 344 344 345 345 345 343 343 345 345 344 344 344 344 344 345 345 345 345 345 345 345 344 345 344 343 342
356 355 355 355 354 354 356 357 357 355 354 355 353 356 357 359 357 354 355 353 354 354 352 353 352 351 353 353 354 354 355 356 355 354 353 351 350 351 351 350 349 345 343 342 344 343 342 343 343 343 344 344 343 337 332 329 327 328 328 330 333 336 339 341 341 340 341 341 341 342 342 343 344 344 345 345 344 345 345 344 344 343 344 344 344 345 345 345 345 345 345 345 345 345 345 344 343
355 356 356 356 356 355 356 355 354 354 354 355 355 356 356 357 356 355 355 353 354 353 353 353 353 352 353 353 354 354 355 355 354 354 354 353 352 352 352 350 349 349 348 347 345 342 343 343 343 344 345 345 343 337 332 327 326 327 327 329 333 337 340 341 341 341 341 340 340 340 341 342 343 344 345 344 345 345 345 345 344 344 343 342 342 343 344 345 345 345 345 344 344 345 345 344 344
356 356 355 356 356 356 359 355 354 354 352 352 355 354 355 355 357 356 354 354 354 353 353 353 353 353 353 353 353 353 354 355 354 354 354 354 352 351 352 351 349 349 350 349 343 340 341 341 342 344 344 345 343 338 331 327 327 327 327 330 333 337 341 342 342 341 341 340 340 340 340 341 342 343 344 345 345 344 345 345 344 342 341 341 342 342 343 344 345 346 345 344 344 344 343 343 343
356 355 355 357 357 357 358 356 357 359 354 351 352 353 355 355 356 355 352 354 354 353 352 352 352 351 353 353 352 353 354 354 354 354 354 353 352 349 349 352 351 349 348 346 341 338 340 340 342 343 343 343 342 337 329 327 327 326 327 330 333 337 341 342 342 342 341 340 340 339 339 341 341 343 343 344 344 344 344 343 342 341 340 340 342 342 343 343 344 345 345 344 343 342 342 342 341
355 354 355 356 357 357 354 354 357 358 356 351 350 351 355 356 355 354 351 353 352 352 353 352 352 352 353 353 353 354 354 354 354 354 354 353 353 351 350 351 352 352 352 347 339 338 340 341 342 341 343 342 341 335 328 327 327 326 328 330 333 337 339 342 342 342 341 340 340 339 339 340 341 342 342 342 343 342 343 342 342 340 340 340 341 342 342 342 343 342 343 343 342 342 341 341 340
354 354 355 355 356 354 348 348 352 356 355 352 350 351 353 353 353 353 352 351 351 353 354 353 353 353 354 354 354 354 354 353 354 354 354 355 354 354 353 352 352 352 353 347 339 338 340 341 342 341 341 341 341 335 327 327 326 326 328 330 333 335 337 340 342 342 342 341 340 340 340 339 340 340 341 341 341 341 342 341 341 342 341 341 340 341 341 341 340 341 342 341 341 342 341 342 342
355 355 355 354 354 350 346 347 348 352 352 351 351 353 355 353 353 353 353 351 352 352 352 354 353 353 354 355 354 352 352 353 354 354 353 353 353 354 355 354 353 352 351 347 339 338 340 341 342 341 340 341 341 334 327 327 326 326 327 329 331 332 335 338 341 342 342 341 340 340 340 339 339 339 340 341 341 341 341 341 342 343 343 341 340 340 341 340 339 339 340 341 341 341 341 341 341
355 356 357 355 353 349 351 352 351 352 350 349 349 350 353 352 352 353 353 350 351 352 353 354 353 353 353 354 354 351 352 354 354 354 354 353 352 353 354 354 354 353 351 346 340 338 339 341 341 341 340 341 342 336 328 326 326 326 327 328 329 331 333 336 338 340 341 341 340 340 339 338 338 338 339 340 341 341 341 342 343 343 343 341 341 341 340 339 338 338 340 341 341 341 341 341 341
355 357 358 357 354 351 353 351 351 353 350 350 350 349 351 351 352 355 354 350 351 352 351 353 352 352 353 355 354 351 352 353 354 353 354 354 352 352 352 353 354 354 350 343 340 339 340 340 342 341 342 342 342 339 332 326 327 326 326 328 328 330 332 334 335 337 340 341 340 339 338 336 336 337 338 339 340 341 342 343 344 344 343 342 341 341 341 339 336 337 340 342 342 341 342 342 342
353 356 356 356 355 353 351 345 347 352 351 348 350 351 351 351 350 352 352 350 350 352 351 352 352 353 353 355 353 352 352 352 353 353 353 353 352 353 352 352 354 355 351 342 340 340 341 341 342 342 343 343 342 341 336 327 326 327 327 328 328 330 331 332 333 334 339 341 340 337 336 335 335 336 338 338 338 339 341 341 342 344 343 342 342 341 341 340 338 337 340 342 342 342 342 342 342
352 355 356 356 353 351 348 344 346 351 350 344 349 351 350 351 351 350 350 350 350 352 352 351 352 353 353 354 354 353 352 351 352 352 352 352 352 353 353 353 353 354 352 345 342 342 342 343 343 343 343 343 342 342 339 330 326 327 326 328 328 329 331 330 331 332 337 341 340 335 334 335 335 336 337 336 336 338 340 340 341 341 341 341 341 341 340 341 340 339 340 342 342 342 343 342 342
350 352 355 353 350 346 345 346 344 347 347 343 348 348 349 351 351 351 350 349 349 351 351 350 350 353 352 352 353 353 352 350 352 352 352 352 351 352 353 354 353 354 353 346 343 343 343 344 344 344 343 343 343 343 341 333 326 327 327 328 329 330 330 331 330 331 336 340 340 337 333 335 337 336 338 338 336 336 336 339 340 341 340 339 340 340 340 341 340 340 340 341 342 343 344 344 344
348 352 352 350 348 344 344 347 345 344 346 345 345 347 348 346 348 349 348 347 349 351 351 351 350 350 351 352 353 353 353 351 351 352 352 352 351 352 353 353 353 353 353 349 344 344 344 344 344 345 344 344 344 343 342 335 328 328 328 328 330 330 330 330 330 331 336 340 340 337 334 340 342 339 342 342 341 339 334 336 339 341 342 340 341 341 341 341 340 340 340 343 344 345 346 346 346
347 351 350 346 348 346 344 347 347 346 347 345 345 348 345 345 346 348 348 347 350 350 349 351 351 351 351 352 352 353 353 351 352 352 352 352 352 353 353 353 353 353 354 353 349 348 349 346 345 345 345 345 344 343 342 336 329 328 329 328 329 330 330 331 330 331 336 339 340 338 340 346 345 343 345 344 345 342 335 336 339 341 343 341 341 342 342 342 341 341 342 345 347 347 348 347 346
346 348 347 347 350 350 346 347 349 348 347 346 347 348 346 345 346 347 348 346 349 349 348 352 351 352 353 352 353 354 353 352 352 353 353 353 353 353 354 354 354 354 353 353 352 352 352 347 345 345 345 345 344 344 342 336 330 328 329 329 330 331 331 331 330 332 336 340 341 340 343 347 346 344 345 344 344 341 336 339 340 340 342 342 342 343 343 344 344 346 347 347 348 348 346 347 348
345 345 346 348 349 348 348 348 348 349 349 348 347 346 347 347 344 348 348 346 349 348 347 350 350 352 353 353 353 353 353 353 353 353 353 352 353 353 355 356 355 354 353 353 352 352 352 347 345 345 345 345 344 343 340 335 330 327 329 330 331 332 332 332 330 334 338 341 343 342 345 348 346 344 345 343 341 341 341 342 342 341 341 343 346 347 346 346 346 347 349 348 348 348 346 348 349
346 344 345 348 349 347 348 347 347 349 349 347 347 347 345 347 346 348 349 347 347 347 349 350 349 352 353 353 353 353 353 353 353 353 354 353 353 353 355 356 355 354 354 353 353 352 352 348 345 345 346 344 342 341 338 334 330 327 330 332 332 333 333 333 332 336 341 343 345 345 347 349 348 346 344 340 341 344 345 345 345 343 343 345 347 349 347 347 348 349 349 349 349 350 348 349 349
345 345 345 349 350 347 348 348 347 348 347 344 346 345 345 347 346 347 347 346 346 347 348 349 350 350 352 352 352 352 353 353 354 353 354 354 354 354 354 354 354 355 353 353 352 353 351 349 346 345 344 342 340 339 337 336 332 328 331 333 333 334 334 335 335 338 342 344 346 347 349 350 349 350 346 340 343 346 346 349 347 345 347 348 348 349 347 346 348 348 349 348 348 350 349 349 348
343 345 347 349 350 348 349 349 348 348 348 344 346 344 346 347 346 348 348 345 346 346 347 348 350 350 350 353 352 351 351 353 354 354 354 355 353 354 354 354 354 354 354 353 352 352 350 348 345 342 340 340 343 344 340 339 335 331 333 336 335 335 337 338 339 343 345 346 346 348 350 349 349 351 349 346 346 346 347 352 349 346 349 349 348 349 348 347 346 348 349 348 347 349 349 349 349
342 343 346 347 347 348 347 347 348 349 348 344 347 346 345 346 344 346 347 346 346 346 349 349 349 350 351 352 352 351 351 351 354 355 354 354 353 353 354 354 354 354 355 355 353 350 351 350 344 338 336 339 343 345 344 342 337 336 340 340 340 342 343 344 347 349 350 348 346 349 351 349 349 350 351 348 347 348 349 351 349 348 349 348 348 348 349 348 348 348 349 349 349 348 348 349 350
341 342 344 343 346 349 347 347 349 349 347 345 345 344 343 344 345 345 346 346 347 347 349 348 347 350 351 351 351 351 352 352 353 354 353 354 354 353 353 354 354 354 354 356 355 351 351 352 348 339 337 339 339 343 346 345 339 342 347 343 344 349 348 349 351 351 351 350 347 347 350 351 349 350 352 349 348 349 350 349 349 349 349 347 348 348 348 348 349 349 348 349 350 348 349 350 349
341 341 342 343 344 346 348 348 349 349 347 346 345 343 343 344 342 343 345 347 346 346 348 347 347 348 351 350 351 352 351 351 352 352 353 354 354 352 353 353 354 354 353 356 355 353 351 352 353 346 341 342 342 346 347 347 343 346 351 346 346 350 350 351 352 351 352 352 348 344 347 352 351 350 352 351 350 351 349 349 349 350 349 347 348 347 346 347 349 350 349 350 351 349 350 350 350
340 341 341 342 343 343 345 347 347 347 346 346 345 342 343 343 341 341 345 347 346 347 348 348 348 349 350 350 350 352 351 351 350 352 352 353 353 352 352 352 353 354 353 355 354 354 352 350 353 350 346 345 346 348 347 346 345 346 352 349 348 350 351 352 352 352 352 352 351 344 341 346 351 352 352 351 351 350 350 348 347 349 350 348 348 347 347 348 350 350 348 348 349 349 349 349 349
340 341 341 342 343 343 342 344 345 345 344 345 345 343 343 343 341 341 344 346 345 346 347 347 347 348 349 349 350 352 351 350 350 350 351 352 353 352 352 351 352 354 354 354 354 355 353 350 352 351 348 345 345 348 347 348 346 347 351 350 350 352 351 353 353 353 351 352 353 348 340 339 347 353 353 352 351 350 351 350 349 350 350 350 348 348 349 349 349 349 347 347 349 349 350 349 348
340 341 342 341 341 343 342 342 343 345 344 344 345 342 341 342 340 340 342 345 345 347 347 347 347 347 349 348 350 351 351 351 349 349 350 351 352 353 353 352 352 353 354 354 354 354 354 353 354 353 349 345 345 349 350 350 349 350 352 351 353 353 350 351 353 353 352 353 352 348 342 337 341 348 350 352 350 350 353 351 352 352 350 351 351 348 348 350 350 349 350 350 349 350 351 349 348
339 340 341 341 340 339 342 342 342 343 343 344 342 335 336 341 340 340 342 344 347 348 347 348 348 349 349 349 350 351 351 350 350 349 348 351 352 352 353 351 351 352 353 355 354 354 354 354 354 355 351 346 347 352 351 351 352 352 352 353 354 353 350 349 351 352 352 353 352 347 342 338 337 340 344 348 346 348 352 351 352 353 352 352 350 347 348 351 351 350 351 350 349 351 351 349 347
338 339 340 341 335 335 340 341 340 341 341 345 342 332 334 340 339 340 342 344 346 347 348 349 350 349 347 349 349 351 352 350 350 349 349 351 351 351 352 351 350 351 352 354 355 355 354 353 354 354 353 348 347 352 352 351 353 353 353 353 354 352 351 349 350 353 352 353 353 346 341 339 337 337 340 344 342 344 351 352 351 352 352 351 350 348 348 352 352 350 350 350 350 350 349 346 345
337 333 332 338 334 334 341 340 339 340 340 343 341 332 335 339 339 341 341 345 346 345 348 347 347 349 347 349 350 352 353 351 351 351 350 352 350 351 352 350 350 351 352 353 355 355 354 353 353 354 355 350 347 352 352 350 352 353 353 353 352 352 351 351 351 352 352 353 353 346 341 339 339 339 341 342 341 341 348 353 352 351 351 350 349 348 348 351 351 349 349 349 348 347 348 346 343
333 332 327 331 332 332 336 336 338 340 340 341 339 335 337 339 339 340 341 344 345 346 347 346 347 349 348 349 352 353 353 352 351 351 351 352 351 351 351 350 349 350 351 352 353 354 354 354 353 353 355 352 348 351 353 352 352 352 353 353 353 352 351 352 352 351 352 352 352 348 341 340 339 339 339 341 342 340 345 352 353 352 351 349 348 347 347 350 351 349 347 348 346 346 348 346 344
329 331 328 330 333 331 331 334 337 338 338 340 338 338 338 339 339 339 341 343 344 347 347 347 347 349 351 350 352 354 354 353 353 352 351 351 352 352 350 348 349 350 351 352 352 353 353 354 354 354 355 354 350 351 354 354 352 351 352 353 353 352 351 352 353 352 352 351 352 351 344 340 339 337 337 340 341 340 344 351 352 352 350 348 348 347 347 351 352 350 348 347 345 345 347 345 343
326 327 327 328 331 332 330 333 337 339 339 340 339 340 338 338 339 340 342 342 345 349 348 347 348 349 352 351 350 352 353 354 353 353 351 351 351 351 351 350 350 351 351 352 352 351 352 353 354 354 354 355 353 353 355 354 352 351 351 352 352 353 351 352 353 352 352 351 352 352 348 343 339 335 336 339 341 341 342 348 351 351 348 347 347 347 348 349 350 349 347 347 345 345 346 345 342
330 331 329 327 327 329 334 334 337 337 337 339 338 338 338 338 338 340 342 341 345 349 348 349 349 350 353 351 350 351 353 355 354 353 352 350 350 350 350 351 350 350 351 352 351 351 351 352 353 353 354 356 354 353 354 353 352 351 350 352 352 351 350 351 352 351 352 351 351 352 349 344 339 336 336 339 341 341 341 344 347 349 349 347 347 348 350 349 348 347 346 347 348 345 344 345 341
332 333 330 330 328 328 335 337 336 338 336 337 339 338 339 338 338 338 342 342 344 345 347 351 351 351 352 351 351 351 353 355 354 353 352 351 350 349 350 351 351 351 351 352 352 351 351 352 352 352 353 354 354 353 352 351 352 351 350 351 352 349 348 349 351 352 352 351 350 352 350 343 339 339 339 340 341 340 340 341 343 348 350 348 348 348 350 349 347 346 345 346 348 345 343 344 339
330 331 328 329 329 329 335 336 337 337 335 335 338 339 337 339 338 338 340 342 342 340 345 352 353 352 352 352 352 352 354 355 354 353 353 351 351 350 350 352 352 352 353 353 353 351 352 352 352 352 352 353 353 351 349 349 350 349 347 349 352 350 348 347 349 351 352 351 351 351 350 344 339 341 342 342 341 340 340 340 342 348 349 348 348 347 349 348 347 347 347 348 348 345 345 345 339
330 329 327 325 328 332 333 335 337 337 335 335 337 336 337 338 338 337 340 339 341 343 340 349 353 354 354 353 351 353 355 354 352 353 353 352 352 352 350 353 353 353 354 354 354 353 352 354 352 351 353 352 352 350 347 346 348 350 348 349 351 352 349 345 348 352 351 352 351 351 350 344 339 340 342 343 342 340 340 341 343 348 349 348 347 347 348 348 346 345 347 349 346 344 346 343 337
329 329 325 323 329 329 327 331 336 335 335 335 336 336 335 338 338 336 339 337 340 343 339 342 351 352 352 353 352 351 354 353 352 352 354 352 352 353 352 353 354 353 355 356 355 355 353 354 353 352 353 353 351 349 346 345 347 351 350 350 350 351 351 348 348 352 352 352 351 351 350 344 339 339 341 342 341 340 341 343 346 348 349 348 346 347 347 347 346 344 347 349 343 343 348 342 335
329 331 326 324 328 329 328 331 335 334 335 336 335 330 331 336 338 337 338 338 339 341 341 340 346 350 351 352 352 352 353 352 353 353 354 352 352 354 354 355 355 355 356 357 357 357 354 354 353 351 351 352 351 349 347 343 346 350 350 349 350 350 352 352 349 351 353 352 351 351 350 344 339 339 340 341 340 341 341 343 348 349 349 348 346 347 347 347 346 344 348 348 342 344 350 345 337
326 330 330 328 329 331 330 332 331 327 326 333 334 324 325 334 337 338 337 337 339 341 342 340 345 351 351 351 352 351 353 353 354 354 353 354 353 353 353 355 357 356 357 357 358 358 354 353 352 350 350 350 351 350 347 342 342 346 346 347 349 350 352 354 351 350 352 352 350 352 351 346 340 337 338 339 340 341 342 343 348 350 350 348 347 348 348 347 346 345 348 348 343 344 348 347 344
323 327 330 329 330 330 329 330 326 322 322 333 335 325 323 329 333 338 338 339 340 339 342 340 345 351 351 350 351 351 352 354 354 354 354 354 354 353 353 356 357 357 358 358 358 358 355 353 351 349 348 348 349 349 347 344 342 343 343 344 346 346 349 353 352 349 352 352 349 352 353 348 342 340 338 339 340 341 341 343 348 349 349 349 349 349 349 348 347 346 350 350 344 342 344 346 347
324 328 331 329 330 329 329 329 324 324 326 330 333 330 323 323 330 337 338 338 340 339 342 342 345 351 350 350 351 351 353 353 354 354 354 355 354 353 353 355 358 358 358 358 359 358 356 354 350 347 347 347 347 347 345 344 342 342 342 342 344 344 344 349 353 351 352 354 351 351 353 348 343 341 341 339 339 340 341 343 347 349 349 350 350 350 350 350 349 349 350 351 346 342 340 339 344
326 330 330 328 328 329 328 328 324 326 325 322 326 329 323 320 329 338 339 337 338 338 340 340 346 350 348 350 353 353 353 354 354 352 352 353 353 352 352 356 359 359 359 359 360 358 356 354 351 347 346 345 346 346 344 343 341 340 340 340 341 342 340 345 352 352 351 354 355 352 352 351 346 343 342 341 340 339 340 341 345 348 349 349 350 350 350 350 350 350 349 350 346 342 340 334 337
328 329 329 328 328 328 328 326 323 323 321 318 322 325 321 320 326 332 334 334 335 338 338 338 346 350 347 349 351 353 353 353 354 353 353 352 351 351 352 357 359 359 360 360 361 360 357 355 353 350 346 343 345 345 342 342 342 340 340 339 339 339 339 343 350 352 348 348 353 354 353 352 351 349 345 343 342 340 339 340 342 345 347 349 349 348 351 352 351 350 348 349 347 342 341 336 329
328 328 328 327 327 327 327 325 323 319 317 318 321 324 321 320 324 329 332 334 336 337 338 337 341 347 348 348 349 350 350 351 352 353 354 354 354 353 354 356 358 358 360 361 362 362 359 356 353 351 347 343 343 343 340 340 340 339 339 338 339 337 337 342 349 350 346 342 346 351 353 352 353 352 349 347 346 342 340 339 340 342 344 347 348 348 350 352 352 350 348 348 347 344 343 339 328
328 327 326 322 321 322 321 320 320 316 315 318 321 323 322 318 323 330 334 336 336 337 339 339 338 342 345 348 349 349 349 350 351 351 353 354 354 355 355 356 358 358 359 361 362 363 361 357 354 352 349 346 343 342 340 339 338 338 337 337 338 337 337 340 345 347 344 340 340 345 350 351 352 353 352 349 347 345 341 340 340 340 341 344 346 347 349 352 354 353 350 347 346 345 343 341 330
327 326 324 318 316 317 317 317 318 315 315 319 322 322 319 319 325 331 334 335 336 337 338 337 340 343 343 345 348 348 349 350 350 350 352 354 354 354 354 355 357 357 359 361 362 363 362 358 354 350 349 347 344 342 340 339 337 336 336 336 337 337 338 338 341 343 342 341 339 343 347 349 349 351 352 349 346 345 343 342 341 341 342 342 343 345 347 351 355 356 353 348 346 344 342 343 335
327 324 321 317 315 316 317 318 318 317 317 319 322 321 317 319 326 332 332 333 336 337 338 338 340 343 344 345 346 347 350 349 349 350 352 353 353 353 354 355 356 358 361 362 361 362 362 359 354 348 346 344 342 340 340 338 336 335 334 335 335 336 337 338 338 339 340 340 339 341 344 345 345 344 347 346 344 344 343 342 341 341 342 342 341 343 344 348 354 356 355 350 346 345 342 342 338
326 327 323 319 316 317 317 318 317 318 318 318 321 320 316 317 325 331 332 332 335 335 337 337 339 343 346 347 346 346 350 349 348 351 354 353 352 352 352 355 359 361 361 362 362 362 362 360 356 349 344 341 340 339 338 336 335 334 334 333 333 334 335 336 336 337 338 339 339 340 341 342 341 338 339 342 344 345 343 341 340 340 341 341 340 341 342 344 349 353 353 349 344 344 343 342 340
326 328 324 319 320 321 319 318 318 317 317 317 319 318 321 324 328 332 331 331 332 333 335 336 338 342 345 347 347 345 348 351 349 351 352 352 352 353 353 356 360 363 362 361 362 361 360 359 357 351 345 341 338 337 336 335 334 334 333 332 332 332 333 333 334 335 336 337 338 339 340 339 340 340 339 340 343 345 345 342 342 340 341 341 341 342 342 342 345 348 349 346 343 343 343 342 342
325 324 320 322 326 325 319 317 319 318 316 317 318 318 322 325 327 330 331 330 331 332 332 334 337 342 345 349 348 343 345 350 349 349 349 350 354 354 356 358 362 364 362 361 362 361 359 359 357 353 349 343 338 336 336 334 333 333 333 332 332 332 332 332 332 332 333 334 336 338 341 341 341 343 343 343 343 345 347 346 343 341 340 341 343 344 344 343 342 345 346 345 342 341 342 342 341
325 320 322 325 327 325 322 318 319 318 316 317 318 317 319 319 322 329 331 330 331 332 332 332 335 340 346 347 347 344 344 347 349 350 350 351 351 354 358 362 364 364 363 362 362 361 359 360 358 355 350 344 339 337 336 335 334 333 332 332 332 332 331 331 330 330 332 333 334 338 343 343 342 342 345 346 346 346 347 347 346 344 341 340 341 343 344 345 344 343 344 343 342 340 341 342 340
327 324 326 326 320 319 321 318 317 318 318 318 318 318 319 318 321 327 330 329 332 333 333 333 332 336 345 349 347 346 344 345 348 350 352 351 353 357 363 364 364 365 364 362 362 362 361 361 360 357 349 343 339 337 337 337 335 334 333 332 332 333 331 332 332 331 332 333 333 335 339 342 342 342 342 344 346 347 347 348 348 347 345 342 340 340 342 346 345 344 344 342 340 341 340 341 341
328 328 328 327 322 321 320 319 319 318 319 319 319 318 319 323 327 329 331 332 332 332 334 334 332 335 346 348 346 345 343 344 347 348 350 352 356 362 364 364 364 366 366 364 363 363 363 362 363 361 354 347 342 339 338 338 337 335 334 333 333 332 333 333 333 332 333 332 333 335 337 341 343 343 342 342 343 346 348 349 348 348 349 346 341 339 341 343 345 345 344 342 339 339 339 340 341
325 324 323 323 324 323 323 321 319 319 319 319 319 318 319 326 334 333 333 334 333 334 335 335 335 334 340 346 347 347 345 343 344 345 347 353 358 363 365 365 366 366 366 365 364 364 364 365 365 362 358 353 347 342 338 338 337 336 335 334 333 333 332 333 334 334 335 333 334 337 338 342 344 343 344 343 341 341 345 350 351 350 350 348 343 340 341 342 343 342 342 342 340 338 337 338 340
325 323 323 324 322 321 319 319 320 319 318 318 319 318 320 328 335 334 335 335 333 334 334 334 334 333 335 342 346 347 344 342 344 344 346 349 353 358 363 365 365 365 366 365 364 364 364 366 367 364 362 357 352 346 341 338 337 336 336 335 334 334 334 334 334 335 335 335 336 337 338 342 346 345 345 344 342 341 342 348 352 351 350 349 346 344 343 342 342 342 341 340 341 339 337 336 338
Wind_Speed
3 5 8 8 8 7 6 5 2 2 2 4 3 1 2 2 0 1 4 4 1 6 11 10 14 12 11 12 13 14 13 6 4 5 9 17 29 32 30 31 31 30 31 32 30 28 27 26 26 26 26 25 24 24 22 22 21 21 21 20 20 20 20 20 20 20 21 20 19 18 17 17 17 16 16 16 16 16 16 16 15 15 14 13 13 12 12 12 11 11 10 10 11 11 11 11 12
2 6 8 6 9 8 4 5 2 0 2 4 2 2 3 2 1 4 7 7 2 9 13 16 19 18 19 18 17 17 17 15 19 22 23 30 33 31 30 31 31 32 33 32 31 28 27 27 27 26 25 24 23 23 22 21 21 21 21 20 20 20 20 20 20 20 20 19 18 17 17 16 16 16 16 16 15 16 15 15 15 15 14 13 13 12 12 11 11 11 11 11 11 10 10 11 11
4 7 10 8 9 7 2 3 2 2 2 2 2 4 3 3 5 9 8 7 7 13 16 18 18 19 19 14 15 17 15 19 29 33 30 33 34 32 31 32 32 33 33 32 30 28 27 28 27 26 25 24 23 22 21 21 21 21 20 20 20 20 20 19 19 19 19 18 17 17 16 16 16 15 15 16 15 15 15 14 14 14 13 13 13 12 11 11 11 11 11 11 11 10 10 11 11
8 8 10 8 6 6 3 1 3 3 2 2 2 5 5 6 8 10 8 5 7 13 13 15 14 16 18 15 17 17 17 20 25 32 30 31 34 34 31 31 31 31 33 32 30 28 28 28 27 27 25 24 22 22 21 21 21 21 20 20 20 20 20 19 19 19 18 17 16 16 16 16 15 15 15 16 15 15 15 14 14 14 13 13 13 12 11 11 11 11 11 11 11 10 10 10 11
10 8 8 7 3 2 2 2 3 2 2 1 1 5 7 6 8 10 12 10 5 11 11 13 14 15 18 15 14 14 19 21 21 27 29 30 33 34 31 30 31 31 31 31 29 28 29 28 28 27 26 24 22 22 22 22 21 21 20 20 19 20 19 18 18 18 17 16 15 15 14 15 14 14 14 15 15 15 14 14 14 14 13 13 13 12 12 12 11 11 11 11 11 11 10 10 10
10 8 8 7 4 3 2 3 3 4 5 2 2 6 8 7 11 10 17 14 4 12 14 14 17 17 17 16 17 17 20 22 21 24 30 33 33 34 32 30 32 32 30 29 29 29 30 29 28 27 26 24 23 22 22 21 21 20 20 19 19 19 18 18 17 17 16 15 15 14 14 13 13 13 13 14 15 15 14 14 14 13 13 13 12 12 12 12 11 12 11 11 11 11 10 10 10
10 7 6 5 5 4 3 4 5 6 5 7 6 9 10 10 13 11 19 12 3 11 15 16 19 17 13 15 17 17 19 21 23 25 32 36 34 35 35 31 30 32 30 28 30 31 30 29 28 26 25 24 23 22 21 21 20 20 20 19 18 18 18 17 16 16 15 14 14 14 13 12 12 12 12 13 13 14 14 13 13 13 12 12 12 12 12 11 11 11 11 11 11 10 10 10 10
8 5 4 2 3 3 4 5 5 5 6 10 10 14 16 16 13 10 14 12 8 11 15 16 18 16 13 17 16 17 19 20 25 29 33 35 33 33 34 33 29 30 29 29 31 31 29 28 26 25 24 23 23 22 21 20 19 19 19 18 18 18 17 16 15 14 14 13 13 13 12 12 11 12 11 12 12 12 12 12 12 12 12 12 12 12 12 12 11 11 11 11 11 10 10 10 11
10 7 2 1 3 3 6 6 2 6 8 8 8 14 18 20 17 12 11 12 14 14 16 16 18 17 16 20 19 19 21 23 29 33 33 34 32 30 31 32 30 30 27 29 32 32 30 28 26 25 24 23 22 21 21 20 19 19 18 18 17 17 17 16 15 14 13 12 12 12 11 11 11 11 11 11 11 11 11 11 12 12 11 11 11 11 11 11 12 12 12 11 11 11 10 11 11
13 10 2 2 3 4 6 6 1 5 5 6 6 12 10 13 17 13 12 15 15 15 17 18 19 21 19 20 18 20 23 28 31 31 32 32 32 30 29 28 28 30 27 30 33 32 30 28 26 24 23 22 21 21 21 19 18 18 18 17 16 16 16 15 14 13 12 12 11 10 10 10 10 10 10 10 9 10 10 10 11 11 11 11 11 11 11 11 12 12 11 11 11 11 10 11 11
8 6 2 1 5 4 3 5 3 3 6 8 7 11 8 11 16 12 13 17 18 17 19 18 18 22 20 17 18 22 25 28 30 30 30 30 31 31 30 28 27 28 28 30 34 33 31 29 26 24 23 22 21 20 21 19 18 18 17 16 16 15 15 14 13 12 11 11 10 9 9 9 9 9 9 9 8 9 9 10 10 10 10 10 10 10 10 10 11 11 11 11 11 11 11 11 11
5 3 3 2 5 4 0 3 4 2 4 6 7 9 7 11 14 14 14 14 18 18 17 16 16 20 16 14 20 24 26 27 29 30 28 26 29 30 29 29 26 25 27 31 34 33 31 29 27 25 23 21 20 20 20 20 18 18 17 15 15 14 13 12 12 11 10 10 9 8 8 8 8 8 8 8 8 8 8 9 9 9 9 9 9 9 9 9 10 11 11 11 11 10 10 11 11
8 2 2 3 6 6 4 3 1 1 1 3 7 8 7 9 11 16 15 14 16 14 15 16 17 18 15 16 21 25 26 26 29 29 28 27 26 27 28 28 26 25 27 32 34 33 30 29 27 25 23 21 19 19 20 20 18 17 16 15 14 13 12 11 10 10 9 9 8 7 7 7 8 7 7 7 7 7 7 8 8 8 8 8 8 8 8 8 8 9 10 10 10 10 10 10 10
7 2 2 3 5 8 8 3 4 2 2 5 7 8 8 9 11 14 14 13 14 13 15 18 19 18 17 17 19 25 27 27 29 28 27 27 27 26 25 25 27 27 27 31 33 31 30 28 27 25 23 21 19 18 19 19 19 17 16 14 13 12 11 10 9 8 8 8 7 7 6 6 7 7 7 7 6 6 6 6 7 7 7 7 7 7 7 7 7 8 9 10 10 10 10 10 10
7 5 3 2 4 5 7 4 5 2 3 8 7 9 10 10 13 13 12 12 15 18 17 18 18 15 17 17 18 26 28 29 29 27 26 26 28 28 26 26 27 27 26 30 31 30 30 27 26 24 23 21 19 18 18 19 19 17 15 14 13 11 10 9 8 7 7 7 7 7 6 6 6 6 6 6 6 6 6 6 6 6 6 7 7 7 7 7 7 7 8 9 9 10 10 11 11
11 6 2 2 5 3 4 5 4 3 1 8 7 9 10 9 12 13 13 14 18 20 18 15 13 12 20 21 23 29 29 30 29 27 27 27 27 27 29 29 28 27 25 28 30 29 29 27 26 24 23 21 19 18 17 19 19 17 16 14 12 11 9 8 7 6 6 6 6 6 6 6 6 5 5 5 6 6 6 6 6 6 7 7 7 7 7 7 7 7 8 8 8 8 9 10 10
12 8 4 3 4 3 3 5 2 1 2 5 8 9 9 8 10 11 13 15 17 18 16 11 9 15 24 24 29 32 30 31 29 27 27 28 28 28 29 29 29 27 25 26 28 28 27 27 26 24 23 21 20 18 17 19 19 18 16 14 12 11 9 7 6 5 6 6 6 6 6 6 5 4 4 4 5 6 6 6 6 6 7 7 7 7 7 8 7 7 7 7 7 7 7 9 9
10 5 5 4 3 4 2 4 6 6 5 3 7 7 8 10 10 12 13 14 15 15 14 11 11 18 25 29 34 33 31 31 29 29 28 27 27 28 28 28 28 27 25 24 25 25 24 25 26 25 24 22 21 19 18 19 19 18 16 15 13 11 9 7 5 5 5 5 5 5 5 4 3 3 3 3 4 5 6 6 5 5 6 7 7 8 8 8 8 7 7 6 7 7 7 8 9
9 5 5 4 3 5 2 2 5 9 10 3 5 5 6 9 10 10 10 12 13 12 14 15 18 23 28 33 34 33 32 31 30 29 28 28 26 27 29 27 27 26 25 25 24 23 21 24 26 25 25 23 22 20 18 19 19 19 17 15 13 11 9 7 5 4 4 4 4 4 4 4 3 2 3 3 3 4 5 6 5 5 6 7 7 8 8 8 8 7 7 5 6 6 7 8 7
10 7 6 4 3 5 5 2 6 17 19 7 2 5 5 4 8 8 7 12 13 9 12 15 20 25 29 32 33 34 32 30 30 29 28 27 25 27 30 28 28 26 25 25 25 25 22 25 27 25 25 24 22 20 19 19 19 18 16 15 13 11 9 7 6 5 4 3 3 4 4 3 2 2 2 2 2 3 5 6 5 5 5 6 6 7 7 6 6 6 5 5 6 5 6 7 5
9 9 7 3 4 2 7 7 9 23 23 5 6 5 5 4 6 7 6 9 8 8 13 15 21 29 30 31 32 32 31 30 29 28 28 27 25 26 27 27 27 27 26 25 26 26 24 25 27 26 26 24 23 21 20 19 18 17 16 14 13 11 10 8 7 6 5 4 4 4 4 4 3 2 2 2 2 3 5 6 6 4 3 5 5 5 5 4 4 5 4 4 5 5 6 6 5
7 9 6 4 6 4 6 8 11 23 20 4 8 2 5 7 7 10 10 6 3 7 17 17 22 30 30 32 31 30 31 29 28 28 28 27 26 26 25 25 25 26 26 27 27 26 26 26 26 26 26 24 23 21 20 18 18 17 15 14 12 11 10 9 9 8 6 6 5 5 5 5 4 3 2 2 2 3 3 4 5 4 2 3 5 5 5 3 4 4 4 5 5 5 5 5 5
9 9 6 8 11 9 2 4 13 27 19 4 7 7 9 9 6 11 12 10 7 8 18 22 23 28 30 32 31 30 31 30 29 29 28 27 27 26 26 26 25 26 26 25 28 27 27 27 27 27 27 26 23 21 20 19 18 17 15 14 13 12 11 11 9 8 7 6 6 7 6 7 6 4 2 3 2 2 2 2 3 3 2 3 4 5 5 4 4 4 4 5 5 4 3 3 4
12 9 8 11 14 15 7 4 11 27 17 4 8 13 12 8 6 8 10 12 14 12 19 24 24 26 28 29 29 30 30 30 29 28 27 26 26 26 26 26 25 27 27 25 27 28 26 26 27 28 28 27 25 23 21 19 19 18 16 16 14 13 12 11 10 9 8 8 8 8 7 7 7 5 4 4 4 3 2 1 1 1 2 3 2 3 4 4 5 4 3 4 4 3 2 2 2
13 12 12 12 12 18 16 16 18 24 15 6 6 8 7 7 8 9 11 12 15 17 21 24 25 26 28 27 27 29 28 28 28 27 26 25 25 25 25 26 25 25 27 26 27 28 27 26 26 27 27 27 25 24 22 20 20 19 17 17 15 14 12 11 12 11 9 10 9 10 9 7 7 7 6 4 4 4 3 3 1 0 0 2 2 2 3 3 3 3 2 3 2 2 2 2 1
14 16 15 14 12 15 19 22 23 20 13 10 8 6 7 8 8 7 13 14 14 19 21 24 26 27 29 27 26 29 29 28 27 27 25 24 25 25 25 26 26 25 25 26 27 28 28 28 26 26 28 27 25 24 22 20 20 20 18 17 16 15 13 11 12 11 10 10 10 12 12 10 8 8 7 6 6 6 6 4 3 2 1 1 2 2 3 3 2 2 2 2 2 1 2 2 1
16 16 15 16 16 15 15 16 17 16 14 13 10 7 7 8 7 5 13 17 17 21 21 23 25 26 28 27 28 29 29 28 27 27 26 25 26 25 26 26 26 25 25 26 27 27 28 29 27 26 28 28 26 23 21 20 19 21 19 17 16 16 15 12 11 11 11 10 10 11 13 13 10 7 8 8 8 7 6 5 4 3 0 1 2 2 3 2 2 2 2 1 1 1 2 2 3
17 14 12 14 17 17 16 13 13 14 13 13 12 8 8 9 7 5 13 19 18 20 22 22 23 24 26 26 29 30 28 29 27 27 27 27 27 26 26 27 26 26 26 26 26 26 27 29 28 26 26 27 27 23 21 21 19 20 19 17 16 16 17 14 12 13 10 9 11 11 12 14 12 9 9 10 8 6 6 5 3 3 2 3 2 1 2 2 1 2 2 2 3 3 2 3 6
17 14 11 12 15 15 17 15 15 14 10 14 14 8 9 10 9 8 14 20 18 20 21 21 21 22 24 24 26 28 28 29 28 27 28 27 27 27 26 26 26 26 26 26 25 26 26 27 27 26 26 27 27 24 22 21 19 20 19 17 17 16 17 16 14 13 11 11 14 12 11 13 14 13 12 11 10 8 6 5 4 5 4 4 4 2 2 3 1 2 2 3 3 2 2 4 6
16 14 11 11 12 12 16 17 18 16 11 15 13 7 8 9 11 11 13 19 19 20 18 17 19 20 21 22 24 25 26 28 29 28 28 28 27 27 26 25 26 26 26 27 26 27 27 26 27 27 27 28 27 25 23 22 20 21 20 18 18 17 17 17 15 13 13 14 15 13 11 13 15 15 13 11 11 10 7 7 7 6 6 4 4 2 0 2 1 2 2 2 2 3 3 5 5
11 12 10 9 9 9 14 17 18 16 14 18 15 7 7 8 13 15 13 18 20 20 19 17 18 19 20 21 23 24 25 26 27 27 27 28 27 27 27 26 26 26 26 27 27 27 28 28 27 26 27 29 29 26 24 23 22 21 20 19 18 17 17 17 15 13 14 15 14 13 12 12 14 14 13 11 11 10 7 6 6 7 6 5 4 2 1 1 1 2 2 2 3 4 5 7 7
9 10 10 9 9 9 13 16 18 16 14 20 17 7 6 8 11 17 17 19 20 19 22 20 19 20 20 20 22 23 23 24 25 26 27 27 26 27 28 28 27 26 26 28 28 28 28 28 28 26 27 28 29 27 24 23 22 21 20 19 18 18 17 16 15 14 14 15 14 12 12 13 13 13 13 11 10 10 8 5 6 6 5 5 4 1 1 1 1 1 1 2 4 5 6 6 7
10 10 10 10 12 10 11 13 17 18 14 17 17 9 6 8 7 15 19 20 19 18 20 20 19 18 19 20 22 22 22 23 24 25 26 28 26 27 28 28 28 27 26 28 29 29 29 29 28 27 27 28 29 28 25 23 22 21 20 19 18 18 17 16 15 15 14 14 13 12 13 14 13 13 13 13 11 10 9 7 6 6 5 6 4 2 2 1 1 1 1 2 4 7 6 3 3
9 10 10 11 14 11 10 11 14 19 16 14 16 11 9 9 8 13 18 20 18 17 20 18 17 17 17 20 20 20 22 23 25 25 26 27 27 27 27 27 28 28 27 28 28 29 30 30 29 28 27 26 28 28 25 24 23 23 21 19 18 17 17 16 14 15 14 13 13 13 14 13 14 14 14 14 12 11 10 8 7 6 5 5 4 2 1 1 1 2 2 3 3 7 7 2 2
10 11 10 11 13 13 13 12 11 17 17 15 15 13 14 12 10 13 17 19 17 21 22 16 14 19 20 19 18 18 21 24 25 25 25 26 27 27 28 28 29 29 28 28 29 29 29 29 30 29 28 26 27 28 27 25 25 24 22 19 17 17 18 17 15 15 15 13 13 14 15 14 14 15 15 15 13 12 12 9 8 7 6 4 4 2 1 1 1 2 1 3 3 4 5 3 3
13 14 12 11 12 12 14 13 10 14 15 15 15 13 14 14 12 14 15 18 17 22 24 14 12 20 22 19 18 18 21 23 24 25 25 26 27 27 27 29 29 29 29 29 31 31 30 29 30 30 29 27 27 29 29 25 23 23 21 18 18 18 19 18 16 15 15 14 13 15 17 15 14 15 15 15 14 14 13 11 9 8 7 5 4 3 1 1 1 1 0 2 3 4 6 5 2
17 15 13 14 13 12 14 14 12 14 12 14 16 15 16 15 13 14 16 17 15 17 22 21 19 21 22 21 21 21 22 22 24 25 25 26 26 27 27 29 30 29 30 31 33 33 32 30 30 30 29 28 27 29 29 25 22 22 22 21 19 19 19 19 18 15 15 15 15 17 18 16 14 14 14 15 14 14 14 12 10 8 8 6 4 3 2 2 2 1 1 1 3 5 6 4 2
20 15 13 14 13 12 14 15 14 16 11 12 16 16 16 16 13 15 18 18 16 16 17 26 30 26 24 25 24 23 22 22 24 24 25 26 27 28 28 29 31 31 31 33 34 35 34 31 31 31 30 30 29 28 30 28 24 23 24 23 19 18 20 21 19 17 14 14 16 18 19 17 15 15 15 15 15 14 13 12 11 9 8 7 5 3 3 3 3 2 1 2 4 5 3 4 3
17 14 13 11 11 11 13 16 15 14 9 10 14 15 15 17 17 15 18 18 18 22 19 24 36 31 27 28 25 24 24 23 23 24 26 28 29 30 30 30 32 32 32 33 35 35 36 33 32 33 31 31 31 29 31 30 27 24 23 23 20 17 18 20 19 17 16 15 16 19 20 18 16 16 16 15 14 14 13 12 11 9 8 7 5 4 4 5 4 3 2 2 5 4 3 5 6
14 14 12 11 12 12 10 14 16 14 11 10 12 12 12 15 17 16 18 19 21 27 25 22 34 34 29 29 27 25 26 25 24 26 28 30 30 30 31 32 33 33 32 34 35 36 37 35 35 36 34 33 33 31 30 30 28 25 22 21 20 17 15 18 18 17 17 17 17 19 20 19 16 17 17 15 15 14 13 12 11 10 8 7 6 5 5 5 5 3 3 3 6 4 4 3 3
15 17 15 13 14 15 11 12 14 14 14 13 12 10 9 11 14 14 15 16 20 26 25 22 29 34 32 30 28 27 27 29 29 30 31 31 33 33 32 32 33 34 34 36 37 38 39 38 37 38 36 36 34 30 29 30 29 27 24 21 20 19 16 17 19 18 18 19 18 19 20 19 17 17 16 15 15 14 13 12 10 10 9 7 6 6 6 5 5 3 3 3 7 4 4 3 2
14 18 19 18 16 16 15 13 12 11 12 14 14 10 7 11 14 14 14 13 14 16 20 21 25 35 35 31 30 29 28 30 32 32 32 33 34 33 33 32 33 36 36 38 39 39 40 40 39 39 38 37 36 32 30 30 30 29 27 25 23 24 22 19 21 21 20 20 20 18 19 19 16 17 17 15 15 14 13 12 11 11 9 7 7 6 6 5 4 3 2 3 6 5 4 3 2
11 15 20 22 20 17 17 16 12 9 9 13 15 11 7 11 14 15 15 14 14 13 15 19 24 34 35 31 31 30 28 30 31 31 33 35 35 35 36 35 35 37 38 38 38 39 40 40 40 40 39 39 37 36 33 30 30 30 29 28 26 27 27 23 22 21 20 20 20 18 19 19 15 15 17 16 16 14 14 13 12 12 10 8 8 7 6 6 4 3 4 3 5 8 9 7 3
10 13 18 21 21 20 18 16 13 9 10 12 16 15 9 9 11 14 17 17 16 15 15 18 24 33 35 31 30 30 29 31 33 35 38 40 40 41 42 41 39 38 37 38 39 39 40 40 41 40 40 39 38 37 36 34 32 30 29 28 27 27 27 26 22 21 20 19 19 20 20 20 17 16 17 17 17 15 14 14 13 12 11 10 9 8 7 7 6 5 5 5 5 8 9 8 8
11 13 15 17 20 21 18 14 12 10 11 10 13 15 10 8 10 13 17 19 17 15 16 15 21 31 33 31 32 32 32 33 36 39 42 43 43 43 43 41 39 37 37 39 41 41 41 41 41 41 40 39 39 38 37 36 34 32 30 28 27 27 27 26 23 22 22 20 19 20 20 20 19 17 17 18 18 16 15 15 14 13 12 11 10 9 8 8 8 6 7 8 8 8 6 5 9
13 15 14 13 16 18 17 13 10 10 11 11 14 15 10 8 9 11 14 17 17 17 17 15 18 30 32 31 32 33 33 33 35 38 41 42 42 43 40 38 37 37 37 40 41 41 42 42 41 42 41 40 39 39 38 37 35 33 32 30 29 28 27 26 24 23 24 23 21 21 21 21 20 19 17 18 19 18 17 16 16 14 13 12 11 10 9 9 10 9 9 10 9 8 6 3 8
14 14 14 11 11 12 12 11 10 10 11 13 17 17 11 8 7 9 11 11 13 14 14 15 18 28 32 34 33 31 32 32 32 33 35 36 38 40 39 39 41 39 37 38 38 40 42 43 43 43 42 41 41 40 39 38 37 35 34 32 31 29 28 27 26 25 25 25 24 23 22 22 22 21 19 17 19 19 18 17 17 17 15 14 13 12 11 11 10 10 10 11 10 9 8 4 6
14 12 11 9 8 8 8 9 10 11 11 13 18 18 14 11 8 10 10 10 13 14 12 14 18 22 27 33 34 32 32 31 31 32 32 33 38 41 42 43 44 41 39 39 39 40 42 43 44 44 43 42 41 41 40 39 38 37 36 34 33 31 30 29 28 28 27 27 27 25 24 24 24 23 21 18 18 19 19 17 17 18 17 17 15 13 13 12 11 10 11 11 10 10 10 7 6
14 11 11 9 8 8 8 8 9 11 10 10 16 18 15 12 10 13 14 12 15 16 16 13 18 22 25 30 32 32 33 32 32 33 32 34 39 43 44 44 43 42 42 42 41 40 43 45 45 45 44 43 42 42 41 40 40 38 37 36 35 33 32 31 31 30 29 28 28 27 26 26 25 25 24 21 20 20 19 18 18 18 18 18 16 15 14 13 13 13 13 12 11 11 11 9 7
14 12 11 10 9 8 9 9 8 10 10 11 16 16 13 12 11 16 19 14 13 18 21 21 22 28 29 29 30 31 35 34 31 33 34 35 38 41 44 43 43 45 45 44 44 42 43 46 46 46 45 44 43 43 42 42 41 39 38 37 36 35 34 33 33 32 31 30 29 28 27 27 26 26 26 24 22 21 21 20 19 19 19 18 17 16 16 15 15 16 15 14 13 12 12 12 10
14 13 12 11 9 8 8 9 8 9 8 12 15 12 10 10 9 14 19 18 17 16 20 26 27 31 33 33 32 31 35 36 32 33 35 37 38 39 41 42 43 46 45 43 44 44 44 46 47 47 47 45 44 44 43 43 42 40 39 38 37 37 36 35 34 33 32 32 30 29 28 27 27 26 26 25 23 22 21 21 20 19 20 20 18 17 17 17 17 18 17 15 13 13 14 14 12
12 12 12 12 11 9 7 8 10 10 8 9 11 9 9 9 9 12 16 19 21 19 19 22 21 30 33 32 33 31 35 41 37 33 35 37 37 38 40 41 43 45 44 43 44 46 47 47 47 48 47 46 46 45 44 43 42 41 40 39 38 38 37 37 36 35 34 33 32 31 30 29 27 26 25 25 24 23 22 22 21 20 20 20 19 18 18 18 19 19 19 17 15 15 16 16 15
10 12 13 12 12 11 7 8 10 11 9 8 8 9 10 9 10 13 14 15 18 20 20 20 15 28 33 32 35 32 33 42 42 36 37 39 39 41 43 42 42 44 45 46 47 48 49 48 48 48 47 47 46 45 45 43 43 42 41 40 40 39 39 38 38 37 36 35 34 33 31 30 28 27 25 24 25 25 24 24 23 22 20 20 20 20 19 20 20 20 21 20 18 17 18 18 18
9 11 13 11 11 12 7 6 7 9 9 7 9 12 12 10 8 10 14 14 14 17 20 20 17 21 30 33 36 34 33 39 42 39 40 43 43 44 45 43 43 46 48 49 49 48 47 47 47 49 49 48 47 46 45 44 44 43 42 42 41 41 41 40 39 38 37 36 36 35 33 32 31 29 27 26 25 25 25 25 26 25 24 22 21 21 20 20 22 22 22 21 19 19 20 20 20
14 11 13 11 10 10 8 7 7 8 8 6 9 12 10 9 8 10 16 16 14 15 16 19 19 15 25 33 36 34 32 34 40 42 42 42 42 43 45 45 44 45 47 48 46 45 45 45 46 48 47 47 46 46 46 45 45 44 43 43 42 42 41 41 40 39 38 38 37 37 35 34 32 31 30 28 27 26 25 26 27 27 26 24 23 22 22 21 23 23 23 23 21 21 22 22 22
17 12 12 11 9 9 9 8 6 7 7 6 8 8 7 8 9 11 14 14 15 14 13 16 19 15 21 32 35 33 31 32 37 41 40 38 39 41 44 45 43 44 45 44 43 43 44 44 45 47 46 46 47 47 46 46 45 45 44 43 43 43 42 42 41 40 40 40 39 38 37 35 34 32 31 30 29 28 27 27 27 28 28 27 25 24 24 24 24 24 24 24 23 23 23 23 23
15 13 12 11 9 8 9 9 8 7 6 5 6 7 7 7 9 13 14 13 15 14 12 11 16 18 22 30 35 34 33 32 34 36 36 36 37 38 41 42 40 40 41 41 42 43 43 42 43 46 47 47 48 48 47 47 46 45 45 45 44 44 43 43 42 41 41 41 40 39 37 36 34 33 32 31 31 30 29 28 27 28 28 28 27 26 26 26 26 26 26 25 25 25 25 25 25
16 12 12 12 11 10 9 9 10 8 7 6 5 5 3 1 3 9 12 11 12 14 12 10 14 21 25 29 33 36 35 33 32 35 36 35 35 35 36 37 38 37 39 40 40 41 42 42 42 44 46 46 48 49 49 48 47 46 46 46 45 44 43 43 43 43 43 42 40 39 38 36 35 34 33 33 32 32 31 30 29 28 29 28 28 28 28 28 28 28 28 27 27 27 27 26 26
Wind_Direction
198 151 141 129 127 142 165 178 226 217 218 285 266 167 199 257 260 208 183 191 279 173 174 146 133 127 106 103 106 83 53 66 93 87 120 141 149 149 147 147 146 145 145 145 145 142 139 137 135 135 136 136 134 135 136 135 132 129 124 120 117 114 110 107 104 102 101 100 100 98 97 96 96 96 96 95 93 92 91 92 93 92 90 89 87 85 83 84 84 84 85 85 86 87 87 89 87
178 142 144 140 151 156 173 192 256 227 218 271 240 120 159 173 175 211 196 189 146 124 126 106 113 111 99 104 104 82 56 69 94 99 119 139 146 147 147 146 146 147 148 146 145 142 140 140 137 136 137 136 136 136 137 136 133 129 124 120 117 113 109 106 104 102 101 101 100 99 97 96 96 96 97 96 96 95 93 92 92 92 92 91 88 86 84 83 83 81 81 83 86 87 87 88 90
157 160 168 168 171 190 268 193 255 305 242 275 102 108 140 180 206 214 204 182 130 109 98 92 103 105 99 96 92 90 84 87 102 109 123 142 147 148 148 146 147 147 147 147 145 143 143 143 139 138 138 137 137 138 138 137 133 130 124 120 116 110 108 106 105 103 101 102 101 101 99 97 97 97 97 96 95 94 93 91 89 89 88 88 87 86 84 83 83 81 81 81 83 87 88 87 89
170 186 186 182 180 213 278 203 258 300 271 282 74 123 162 196 206 215 185 140 103 97 93 93 89 93 94 94 95 96 103 101 109 119 130 146 147 146 147 146 147 147 147 148 147 145 146 145 142 140 139 138 138 139 139 137 135 130 124 120 115 110 108 107 105 103 102 102 101 101 100 98 97 97 97 96 95 94 93 92 88 87 86 86 86 86 85 85 84 83 83 82 84 86 88 89 90
178 203 202 199 191 240 263 268 259 274 268 217 91 142 165 183 219 225 147 121 104 100 104 102 87 90 89 92 103 104 112 112 117 124 133 144 143 142 146 146 146 147 148 149 150 149 148 147 145 143 140 140 140 141 140 138 136 130 125 121 115 111 108 107 106 104 103 102 100 99 99 99 98 98 97 96 97 96 95 92 89 87 87 85 84 85 85 83 85 85 84 84 84 85 86 89 92
186 208 211 219 240 284 258 278 274 263 262 212 161 157 150 161 217 215 117 108 123 114 114 107 101 99 86 86 98 109 122 121 123 129 135 140 143 145 145 146 147 146 147 150 153 152 150 150 147 144 142 142 142 142 142 139 137 131 125 121 116 112 109 108 106 105 104 103 100 98 97 97 98 98 96 96 96 96 94 92 90 88 87 84 83 83 84 84 86 87 87 87 85 85 85 86 89
183 195 205 239 259 270 264 281 281 280 254 213 180 152 154 177 198 166 113 110 116 113 113 110 110 103 93 100 97 106 122 124 128 134 137 140 146 148 145 145 149 149 148 151 155 154 152 151 149 146 144 143 143 144 143 140 137 131 127 123 118 113 110 108 106 106 106 105 102 98 97 96 96 96 94 94 93 93 91 90 89 88 87 86 86 84 85 88 89 90 90 91 89 86 84 84 85
186 193 190 238 281 261 260 268 267 277 230 202 178 147 154 173 170 135 128 134 130 122 113 110 110 98 101 111 103 110 117 122 131 134 136 140 143 145 145 144 148 151 151 154 157 155 153 151 150 149 146 145 145 146 144 141 139 134 128 124 119 114 111 109 107 107 108 107 104 100 98 97 97 96 94 92 90 89 88 89 89 90 91 90 89 88 86 89 92 93 92 92 91 87 84 84 83
202 222 207 167 293 284 269 269 226 253 232 191 164 134 143 156 146 134 140 125 119 121 111 111 108 102 107 106 107 117 119 124 129 132 136 139 140 140 144 147 149 148 150 156 159 157 153 152 152 151 149 147 148 148 146 143 141 137 131 127 121 116 113 110 109 107 108 108 106 102 98 99 99 98 95 92 90 89 89 90 91 91 92 91 90 89 89 90 91 92 93 93 92 89 87 85 83
198 223 237 65 270 280 288 294 216 223 195 152 136 119 131 135 124 130 131 117 116 107 104 111 108 110 113 107 112 122 125 130 130 133 138 141 142 141 143 148 152 150 151 157 160 158 155 154 154 154 152 151 150 150 149 146 143 140 135 129 122 117 114 111 110 107 108 108 107 104 100 99 99 100 96 93 92 92 93 93 93 91 89 89 88 88 90 91 91 90 90 91 92 92 91 90 87
194 221 202 28 263 284 322 309 290 219 134 131 124 119 140 126 116 120 115 119 123 112 112 114 109 112 112 107 113 126 132 134 134 136 140 144 145 145 143 146 152 153 153 157 161 160 157 157 156 156 155 153 152 152 152 150 147 144 138 132 125 119 116 113 111 108 108 108 108 106 105 101 96 97 96 94 94 93 95 95 92 88 87 87 86 86 89 89 90 89 86 87 89 91 91 92 90
208 205 172 249 276 301 284 245 284 328 76 108 106 102 120 118 116 116 112 121 122 118 120 117 117 114 109 110 118 131 137 138 138 138 141 143 144 146 145 146 149 151 153 158 162 162 160 160 158 157 157 155 154 155 155 154 151 147 143 136 128 123 119 115 112 109 107 108 108 109 109 102 95 93 95 96 95 95 95 94 90 84 85 85 85 86 87 86 88 86 84 85 85 88 88 86 87
222 214 181 271 290 302 287 238 195 78 37 91 102 102 104 98 106 119 127 131 118 115 121 125 129 119 113 120 128 139 141 143 141 140 143 141 142 145 146 148 147 148 154 159 161 163 163 162 160 160 158 156 157 158 158 158 155 152 148 141 134 128 123 118 113 109 107 108 109 109 106 98 93 87 88 92 91 92 90 91 88 84 83 83 84 83 84 84 84 82 80 81 83 86 84 80 77
219 140 146 288 300 304 302 282 97 93 214 127 114 114 108 98 105 113 118 118 113 124 130 131 128 116 121 129 139 147 145 147 145 145 147 142 143 145 144 145 146 147 153 160 162 163 164 163 163 162 162 159 161 162 160 161 159 157 154 147 142 133 128 123 115 109 107 109 109 105 100 95 92 85 83 83 82 82 78 82 81 78 82 84 85 82 83 82 84 87 84 83 83 83 80 76 73
214 155 158 252 289 298 298 288 111 171 200 121 121 121 110 106 111 106 105 108 114 133 137 137 137 127 139 146 150 151 147 148 147 146 146 142 143 144 141 139 142 145 150 160 163 165 166 165 165 164 164 164 166 165 163 164 164 162 159 154 148 141 136 129 119 113 107 105 105 101 98 98 96 89 83 79 78 76 72 72 70 70 76 80 82 80 80 79 86 94 91 87 83 80 77 74 74
225 204 197 245 277 300 308 306 115 170 118 103 129 130 112 108 112 105 111 118 122 139 141 140 154 146 148 152 150 149 148 149 148 147 146 144 143 143 143 143 144 145 151 159 162 165 167 167 167 167 167 167 168 168 166 168 168 167 164 160 156 150 145 137 127 113 105 102 100 102 104 107 103 93 88 83 76 71 66 65 64 64 68 75 76 77 79 79 87 97 96 88 80 80 75 72 71
234 226 250 259 276 297 311 322 11 322 331 121 139 128 117 107 106 110 119 123 126 140 137 134 153 147 150 150 147 148 148 149 150 148 148 146 146 144 145 146 146 147 150 155 161 164 167 170 169 169 169 169 170 171 172 171 171 170 168 166 163 159 154 147 136 117 110 105 100 110 114 113 109 99 93 82 75 69 60 58 62 64 65 71 73 76 79 79 86 93 92 77 73 85 75 67 67
239 224 239 254 260 273 312 353 332 302 283 184 139 125 128 120 116 132 135 125 127 132 122 113 111 127 141 142 144 148 148 151 153 152 151 150 150 148 147 148 147 147 149 151 159 162 164 169 170 171 170 169 172 175 176 175 174 173 173 173 171 168 164 159 149 132 124 114 110 124 125 124 129 114 95 78 71 69 61 56 60 66 69 74 73 74 75 79 84 86 86 74 68 80 71 62 61
230 236 235 235 231 262 279 38 321 296 286 261 142 118 111 123 129 144 143 123 127 128 117 109 104 114 130 138 144 148 151 154 155 155 155 155 155 153 152 151 151 150 152 153 156 159 162 167 170 172 170 171 173 176 178 178 178 177 178 179 179 177 176 176 167 159 152 132 126 139 139 136 137 116 100 89 76 67 62 55 59 69 73 76 71 70 72 75 80 81 81 78 72 68 65 62 55
218 236 251 218 197 272 285 271 273 273 270 265 145 121 102 125 138 150 159 132 131 134 126 123 121 126 133 140 145 149 154 157 157 158 158 159 158 158 156 154 156 154 154 156 156 161 164 167 170 171 171 173 174 177 179 179 181 181 182 184 185 186 186 189 186 186 177 159 155 164 158 143 153 147 129 124 92 77 66 54 58 71 80 81 69 67 72 74 82 82 77 76 74 58 52 58 51
208 218 249 204 144 254 283 280 262 263 259 208 124 148 148 169 152 131 125 123 131 145 136 133 134 136 140 145 148 152 156 159 161 162 161 162 160 162 162 158 159 157 158 158 158 164 166 169 172 172 173 175 175 178 180 180 183 185 185 186 187 189 192 194 194 195 188 186 185 174 165 161 192 193 177 169 112 86 73 54 55 66 77 85 69 52 53 60 73 76 69 59 63 58 47 46 44
224 233 240 137 146 202 286 289 265 265 264 156 110 149 157 174 168 119 111 122 156 157 139 139 142 143 147 149 152 156 158 162 165 165 164 164 162 163 164 163 162 161 165 165 163 167 169 171 174 175 176 176 177 178 181 182 183 186 187 187 189 192 195 195 197 199 196 197 190 178 175 172 196 211 186 173 116 90 77 47 50 60 44 70 65 35 29 36 54 67 54 35 55 61 38 29 32
238 246 209 166 182 186 221 287 276 272 266 147 135 190 184 175 163 132 141 159 170 164 141 142 147 147 151 152 156 161 162 166 167 168 167 166 167 165 164 165 165 166 168 170 171 170 172 174 177 179 178 176 175 177 183 185 184 187 189 190 193 197 198 198 199 200 200 202 190 176 175 169 188 215 189 176 167 126 96 52 55 75 33 31 54 35 27 25 31 57 43 25 46 49 25 25 29
237 251 230 213 190 177 201 210 267 271 257 175 171 187 187 167 155 159 158 151 150 149 138 141 146 149 152 154 160 164 164 167 169 171 169 168 170 168 167 166 167 170 168 169 174 174 174 176 181 184 181 179 177 177 183 187 186 184 191 196 194 198 201 197 199 201 202 209 194 172 172 171 180 213 212 196 182 155 152 157 83 73 26 353 26 48 39 24 22 38 33 28 36 30 23 39 18
227 244 249 248 202 180 202 202 219 248 243 229 216 191 197 167 164 177 159 143 139 139 138 142 147 151 154 158 164 165 167 170 170 171 170 171 172 169 169 168 168 171 172 170 174 178 177 177 182 185 183 182 181 180 184 189 186 181 193 199 189 196 202 195 200 206 204 208 200 180 180 178 177 201 206 200 182 178 214 198 175 353 32 311 323 40 43 26 15 19 26 31 17 354 4 6 44
218 226 235 248 240 201 200 205 217 235 234 233 230 217 223 182 172 170 156 155 140 137 144 145 149 156 158 162 167 166 169 173 172 172 173 174 174 172 171 171 171 170 174 175 175 180 180 178 180 184 184 182 181 184 187 188 186 182 194 201 190 193 197 199 204 203 202 204 206 192 182 173 176 199 195 188 193 197 217 209 197 213 160 247 306 353 32 26 340 342 3 334 308 300 11 355 83
229 224 227 239 253 244 222 215 221 232 232 229 229 223 223 200 192 167 157 162 149 143 148 149 152 160 163 165 168 168 172 175 174 172 175 177 177 177 174 174 175 173 174 174 176 181 182 182 182 185 186 183 182 186 188 189 191 186 192 199 192 191 192 199 202 196 203 204 210 206 190 180 177 194 191 188 200 204 211 212 208 214 233 272 319 351 20 15 293 334 350 311 328 100 53 42 93
245 234 232 239 247 254 250 238 223 226 230 228 234 238 233 216 200 181 163 161 155 152 153 155 157 161 166 168 168 170 174 177 176 175 178 179 179 179 178 177 177 176 176 175 177 179 182 185 185 186 187 186 186 188 189 190 192 187 191 194 190 195 192 191 196 198 203 201 212 217 203 194 185 187 190 187 194 201 209 212 208 214 236 270 285 320 320 284 266 357 2 33 65 88 61 67 89
248 240 236 237 235 242 246 246 235 228 225 224 233 236 231 219 205 202 172 163 160 155 155 159 160 160 165 170 171 172 175 177 179 179 180 180 180 181 180 180 178 178 178 177 177 178 180 182 184 188 189 188 187 188 190 190 187 186 192 192 190 199 195 191 193 196 197 198 217 223 208 202 196 198 200 195 195 188 202 211 195 211 226 242 254 271 278 247 234 358 353 22 45 67 51 71 90
245 237 239 242 232 229 228 230 231 229 221 222 233 230 223 217 206 206 175 166 162 150 152 161 159 159 165 170 174 176 178 180 181 182 181 180 181 181 181 182 180 180 180 179 179 179 180 180 183 188 190 190 187 186 190 189 187 188 193 192 192 199 198 197 193 194 200 200 220 226 210 206 203 209 211 208 207 189 197 217 198 210 225 228 250 279 267 194 131 4 348 6 25 54 66 85 103
242 233 234 243 244 239 224 216 217 221 209 210 228 236 223 223 202 194 177 170 167 154 154 163 165 164 169 172 172 177 182 184 184 183 182 181 181 182 182 182 181 181 180 180 181 179 180 182 183 184 189 191 187 186 191 190 188 188 193 194 194 199 199 200 194 196 205 202 219 225 211 211 207 211 215 211 211 194 194 225 218 217 225 233 254 275 279 227 18 7 355 4 34 63 82 89 92
229 232 225 224 234 248 239 217 205 212 203 199 219 235 218 238 206 185 180 174 173 163 158 168 177 173 171 172 170 177 184 186 187 186 183 183 183 183 183 182 181 181 181 183 183 180 179 183 185 184 188 191 186 186 191 192 189 188 193 195 196 201 199 200 194 195 207 206 216 222 210 214 211 210 215 212 209 200 192 215 240 236 234 245 250 267 305 338 357 329 349 26 58 82 86 77 82
216 225 226 221 221 230 246 229 200 203 206 196 215 232 220 236 198 178 179 175 177 168 160 169 175 172 171 170 170 176 180 184 190 190 186 185 185 184 183 183 183 182 182 184 185 183 180 182 185 185 188 191 187 186 189 192 192 190 191 193 198 204 201 199 195 193 207 212 213 221 216 213 212 211 215 213 209 205 196 203 238 247 252 257 261 305 307 8 356 313 30 50 69 94 98 66 63
210 215 225 229 228 223 231 235 203 196 202 201 212 223 231 227 174 177 183 178 178 161 160 174 172 172 172 168 171 177 180 184 190 192 189 187 186 187 186 186 184 183 183 183 185 185 182 183 184 184 188 191 188 186 189 192 194 194 192 192 196 203 202 198 198 195 204 214 209 220 226 215 212 214 215 215 211 208 203 202 224 244 257 260 273 295 261 185 324 314 16 46 70 103 119 138 155
214 212 218 225 234 233 224 226 205 192 197 204 211 215 231 228 172 178 190 185 172 150 164 187 176 169 170 170 175 182 186 186 189 191 191 190 188 188 187 187 185 183 184 182 185 185 182 186 185 183 187 190 189 187 189 193 196 197 193 193 195 201 201 195 199 198 199 209 208 216 229 221 213 214 215 216 214 212 211 209 216 239 260 268 277 271 216 165 185 289 343 45 57 106 126 140 154
227 219 218 221 226 236 233 225 199 191 201 208 215 215 223 227 188 179 192 192 177 159 167 170 160 165 167 174 179 188 194 188 187 189 191 194 191 189 187 186 186 184 185 183 185 185 182 188 188 185 188 189 190 190 191 193 195 197 193 192 197 203 204 195 197 202 198 204 206 217 228 224 215 214 216 217 216 214 216 219 222 237 255 264 269 256 238 223 212 269 289 54 44 85 109 113 106
240 232 222 223 222 231 238 231 200 195 210 211 215 217 220 222 195 182 190 194 194 181 164 146 160 176 171 176 182 188 196 188 187 188 192 196 192 191 189 187 186 185 187 185 187 186 183 187 188 186 189 189 191 192 192 192 191 195 193 191 198 204 206 199 196 201 202 203 205 217 229 227 218 216 218 219 217 215 216 223 228 235 244 252 258 245 236 245 257 266 167 71 67 79 93 125 93
241 246 237 228 222 225 233 235 208 192 207 211 206 215 224 225 213 198 190 193 201 201 174 151 164 178 174 178 183 186 191 187 186 186 192 197 193 192 190 188 188 186 188 187 188 188 184 187 188 186 189 191 193 193 194 196 193 196 196 192 196 203 209 206 199 199 200 204 210 221 233 232 221 217 219 220 218 216 217 222 228 235 239 242 249 242 233 236 254 250 179 93 92 84 87 182 174
234 244 248 241 227 220 225 236 221 191 202 216 205 214 223 223 229 223 201 197 193 193 196 167 161 169 175 179 181 182 185 186 186 187 194 198 194 192 190 190 190 188 189 187 188 189 185 187 188 185 188 192 196 195 196 197 193 196 200 193 191 198 212 211 203 202 198 200 212 222 233 234 222 218 222 221 219 219 219 221 227 234 236 236 238 237 235 231 233 238 214 138 92 106 160 201 210
231 233 241 244 236 227 218 229 222 200 211 224 214 223 225 217 222 228 220 208 189 187 202 184 162 165 172 175 181 182 182 186 187 191 197 198 194 192 191 191 190 189 189 187 187 189 187 188 189 186 187 191 196 198 199 199 193 193 198 194 190 192 210 215 203 204 204 199 210 221 229 232 223 220 224 224 222 223 222 223 228 233 234 236 236 231 232 233 228 226 218 163 89 112 205 239 203
227 229 233 236 238 240 237 231 220 204 211 215 216 227 229 227 225 227 228 211 188 184 193 188 168 163 166 172 182 186 185 185 187 192 197 197 194 191 192 192 191 190 191 189 187 188 189 190 192 189 188 191 196 200 202 201 196 194 195 193 192 188 201 218 206 202 207 201 207 222 230 233 228 224 226 226 225 225 225 225 229 234 235 235 235 232 228 233 231 218 215 156 105 116 219 272 223
223 227 231 236 237 241 245 244 232 215 210 205 213 231 220 227 235 231 230 217 200 188 184 186 169 160 166 174 179 187 189 186 188 193 195 196 193 191 192 194 194 193 193 191 189 190 192 192 193 192 190 192 194 199 201 200 197 197 197 193 192 190 191 209 211 203 205 205 204 215 231 236 233 228 228 228 227 225 226 226 227 232 237 232 228 232 228 232 233 217 221 159 139 155 184 224 263
224 221 224 234 240 240 239 241 238 229 224 207 207 227 226 221 228 228 230 224 214 204 187 184 167 157 165 173 175 182 187 185 187 193 195 195 193 191 192 195 198 196 193 192 190 193 195 194 195 194 193 194 195 199 202 202 198 197 198 196 195 196 193 200 213 208 203 209 205 206 227 238 232 225 228 231 230 227 226 226 226 230 234 229 225 226 221 222 219 214 223 192 176 183 180 191 228
226 219 217 224 234 242 242 240 241 238 240 227 209 213 222 229 227 225 230 229 221 211 193 181 167 160 164 170 175 181 184 183 186 193 197 196 195 193 193 195 199 198 193 191 191 194 196 195 197 197 195 195 196 200 204 204 203 200 200 200 198 201 200 198 209 211 201 207 210 204 219 237 233 224 227 232 233 230 226 225 225 228 230 227 229 227 220 215 209 211 216 211 210 202 196 203 210
226 225 223 219 223 234 242 245 250 250 249 244 223 213 212 223 225 221 223 226 228 222 215 199 166 160 166 169 173 180 183 184 189 198 201 199 199 199 195 195 198 199 195 193 192 195 198 196 198 199 198 198 198 201 205 205 208 207 205 205 202 204 206 201 206 213 203 200 210 208 211 229 237 231 227 229 233 232 228 227 226 225 228 227 227 225 219 214 208 213 223 224 233 231 228 223 211
218 225 233 225 217 222 231 239 247 254 251 246 240 231 224 222 216 215 217 217 222 217 218 218 171 160 168 172 174 177 181 184 190 199 202 202 205 203 198 195 198 201 200 195 192 194 198 197 197 199 199 201 200 202 207 207 208 211 210 209 209 207 208 205 204 212 212 205 207 211 209 216 231 236 230 226 230 233 229 227 226 225 226 227 227 222 214 211 207 214 229 233 240 247 253 245 219
211 217 231 231 222 215 218 228 235 245 245 237 242 243 240 241 228 228 225 210 222 223 212 211 178 164 169 171 174 177 179 182 187 193 198 201 204 202 198 197 199 202 202 197 191 191 196 198 198 200 201 203 203 204 209 209 209 212 214 213 214 212 211 208 205 210 217 215 211 212 210 209 219 232 236 227 224 230 231 227 227 226 227 227 227 223 216 213 212 215 227 234 239 249 256 255 229
210 207 217 222 221 216 213 214 216 231 237 227 233 237 235 236 231 239 240 208 216 238 233 203 171 170 178 172 172 178 178 181 186 190 193 196 199 199 200 200 199 200 201 198 193 190 195 199 200 201 201 202 204 205 209 211 211 213 216 216 217 217 215 210 209 211 217 221 217 214 213 211 213 222 232 230 220 225 231 229 226 226 228 228 225 222 218 214 214 217 225 232 237 245 252 254 234
207 202 204 210 206 201 206 210 211 227 237 227 225 228 231 237 234 237 245 222 203 218 235 213 169 177 188 176 174 177 176 179 183 185 189 195 199 200 201 202 199 199 201 198 194 191 194 199 201 202 202 203 205 207 210 212 214 216 217 218 218 219 219 215 214 214 216 223 222 217 215 215 215 216 224 230 225 224 228 229 226 224 226 229 225 220 218 213 210 218 226 229 231 240 248 252 244
199 200 197 205 204 192 199 210 218 228 233 228 225 225 230 239 236 231 238 238 219 210 215 213 191 183 181 175 179 179 174 179 182 181 188 197 199 199 200 201 199 198 200 199 195 194 195 199 202 204 204 206 207 208 211 214 216 218 219 220 220 221 221 220 218 217 217 222 226 223 219 219 221 221 224 229 230 228 229 231 230 226 226 230 227 220 218 213 210 216 226 229 228 237 245 246 246
197 205 203 211 210 198 202 208 216 228 228 220 220 223 229 232 227 225 229 232 236 230 218 217 202 180 172 174 183 182 175 178 182 182 189 198 202 204 202 201 200 199 199 198 197 196 198 199 202 205 205 207 208 209 211 214 217 220 220 221 222 223 224 223 222 221 220 221 226 228 225 224 226 228 229 229 230 230 232 235 235 229 226 229 231 226 220 218 215 217 223 228 229 235 242 243 245
196 201 207 216 209 202 215 218 217 225 231 218 212 217 225 237 238 227 224 220 223 228 232 234 203 169 168 174 181 185 177 177 182 184 191 199 203 207 206 203 200 199 199 199 198 198 200 201 202 205 206 207 208 210 212 215 217 219 220 221 222 223 224 225 225 225 223 223 226 228 230 230 229 231 233 232 230 230 232 236 237 234 227 225 230 230 226 223 222 222 224 228 232 236 240 242 244
186 199 210 211 205 212 227 227 220 220 229 222 212 217 216 231 240 223 221 221 215 212 220 237 210 168 169 173 178 187 181 175 179 186 193 199 202 204 205 203 199 197 198 200 200 200 201 202 203 205 206 208 210 211 212 215 217 218 219 220 221 222 223 225 226 227 226 225 226 228 229 231 230 229 231 233 232 229 228 231 236 239 233 227 228 229 228 227 227 227 227 230 236 240 241 242 243
190 195 206 203 205 218 230 239 229 219 230 224 214 222 213 209 222 212 214 221 219 212 207 221 223 182 170 172 176 184 185 176 175 183 191 196 200 202 202 201 200 198 199 201 202 202 202 203 205 207 208 210 211 212 213 215 216 217 219 219 220 221 222 224 226 227 227 226 226 226 227 230 231 230 227 228 232 231 228 227 231 237 239 235 231 230 230 229 229 230 231 234 237 240 242 242 243
219 199 192 199 205 205 208 231 234 220 229 226 218 231 222 204 203 202 210 210 212 223 208 205 222 198 166 170 177 182 186 180 174 180 186 190 194 196 197 198 200 199 199 200 200 201 201 203 207 211 213 214 214 214 214 215 216 218 219 219 220 220 221 223 225 227 227 227 227 227 227 228 231 232 229 227 229 232 232 228 227 230 235 237 236 235 234 231 230 230 232 235 235 235 239 240 241
225 215 194 201 211 203 202 217 230 229 228 220 219 230 235 224 200 191 204 199 195 220 222 202 211 200 165 168 177 182 187 183 177 180 185 187 190 192 194 197 199 199 198 198 198 198 199 202 206 211 215 216 216 215 215 216 217 219 220 220 221 222 222 223 225 226 226 228 229 228 228 228 229 231 232 230 228 229 231 231 228 227 228 233 236 236 236 233 231 232 232 235 235 232 235 238 239
211 217 201 195 202 205 207 210 218 232 236 228 224 223 229 231 201 187 199 197 185 201 225 210 200 197 179 171 174 179 187 190 183 180 181 183 188 192 195 196 197 198 197 196 197 197 197 199 204 210 214 215 216 216 216 217 218 220 220 221 222 223 223 224 225 225 226 228 229 228 228 229 229 230 232 232 232 230 229 230 230 229 227 230 235 236 237 235 234 235 235 236 237 235 235 237 238
200 209 208 197 195 200 207 209 206 217 235 239 243 247 242 234 189 182 185 183 174 186 211 209 198 199 186 176 176 177 184 194 188 179 180 183 187 191 195 196 196 196 196 196 197 197 197 197 200 207 212 215 217 218 218 218 218 220 221 222 223 223 224 224 224 225 226 228 229 229 230 229 228 230 231 232 235 234 231 228 229 231 230 231 234 235 236 236 236 236 237 237 238 238 237 236 236